TITAN 3C TRANSTAGE DEB, 26048

Orbit data source: Space-Track

TITAN 3C TRANSTAGE DEB, 26048 is space debris in HEO originally from a launch on Tue, 21 Dec 1965 UTC launched from the Air Force Eastern Test Range (AFETR). Debris objects in space refer to the collection of defunct objects orbiting the Earth. Examples of debris include non-operational satellites, rocket bodies, and fragments generated from explosions, collisions, or faulty payload assembly.

Loading next visibility...
Identifier
26048, 1965-108AG
Orbit
HEO
Country
Flag of USUS
Related business
Manufacturer
Unknown
Mission
Spacecraft
Bus & Motor
Unknown
Mass
Unknown
Launch date (UTC)
1965-12-21 (60 years ago)
Launch vehicle
Unknown
Launch site
Air Force Eastern Test Range (AFETR)
Object type
Payload
Rocket body
Debris
Shape & HBR
Unknown shape, 0.3 m
Radar Cross Section
Medium (>0.1 m² and <1 m²)

Expand to show TLE details & history
Last TLE update: 3 weeks ago

TLE from 3 weeks ago
0 TITAN 3C TRANSTAGE DEB
1 26048U 65108AG  25280.16707226  .00194853  00000-0  80165-1 0  9999
2 26048  26.3608 241.9155 6243270 263.1075  27.0182  3.64922779323975
Epoch: 2025-10-07T04:00Z
TLE epoch observation values (Epoch: 2025-10-07T04:00:35.043Z)
Latitude
-0.0001°
Longitude
165.63632°
Altitude
5,365.907 km
Speed
6.746 km/s
True Right ascension
16h 07m 22s
True Declination
0° 00' 00"
Sunlit
Object was in daylight at epoch
Visualization orbit readout
Latitude
Unknown
Longitude
Unknown
Altitude
Unknown
Speed
Unknown
Apparent Right ascension
Unknown
Apparent Declination
Unknown
Sunlit
N/A
Visualization observer readout
Local Sidereal Time
14:37:37
Azimuth
Unknown
Elevation
Unknown
Doppler factor
Unknown
Orbital elements
Apogee altitude
22,575.108 km
Perigee altitude
318.145 km
Semi-major axis
17,824.763 km
Eccentricity
0.62433
Inclination
26.3608°
RAAN
241.9155°
Arg. of periapsis
263.1075°
True anomaly
96.96836°
Mean anomaly
27.0182°
Eccentric anomaly
57.02808°
Mean motion
0.91203 °/min
Orbital period
394.73 mins
BSTAR
0.080165
Loading maneuver chart data...
Computing Atmospheric mass density...

Documentation

Showing up to 5 results
|